Seeley, CA

8:21 PM PDT on September 21, 2014 (GMT -0700)
El Centro Naval Air Facility | Change Station
CLOSE
Current Station
Airport
Location: El Centro,
Elevation: -43 ft
Nearby Weather Stations

Elev -43 ft 32.83 °N, 115.66 °W | Updated 25 minutes ago

Clear
Clear
87 °F
Feels Like 87 °F
N
6
Wind Variable Wind from NNE

Today
High -- | Low -- °F
--% Chance of Precip.
Yesterday
High -- | Low -- °F
Precip. -- in
6:30 AM 6:40 PM
Waning Crescent, 4% visible
Pressure 29.82 in
Visibility 10.0 miles
Clouds Clear
Dew Point 44 °F
Humidity 22%
Rainfall 0.00 in
Snow Depth 1 in , 0 in , 0 in
UV 0 out of 12
Pollen 8.80 out of 12
Ozone Good
PM2.5 Good
Flu Activity Not available.
METAR KNJK 220256Z AUTO 03005KT 10SM CLR 31/07 A2977 RMK AO2 SLP096 T03060067 53003

More Conditions Fewer Conditions

Pressure 29.82 in
Visibility 10.0 miles
Clouds Clear
Dew Point 44 °F
Humidity 22%
Rainfall 0.00 in
Snow Depth 1 in , 0 in , 0 in
UV 0 out of 12
Pollen 8.80 out of 12
Ozone Good
PM2.5 Good
Flu Activity Not available.
METAR KNJK 220256Z AUTO 03005KT 10SM CLR 31/07 A2977 RMK AO2 SLP096 T03060067 53003

More Conditions Fewer Conditions

10-Day Weather Forecast

Almanac

Astronomy

Sep. 21, 2014 Rise Set
Actual Time 6:30 AM PDT 6:40 PM PDT
Civil Twilight 6:05 AM PDT 7:05 PM PDT
Nautical Twilight 5:36 AM PDT 7:33 PM PDT
Astronomical Twilight 5:07 AM PDT 8:02 PM PDT
Moon 4:13 AM PDT (9/21) 5:14 PM PDT (9/21)
Length of Visible Light 12h 59m
Length of Day
12h 10m
Tomorrow will be 2m 1s shorter.
Waning Crescent, 4% of the Moon is Illuminated
Today
Waning Crescent
Sep 24
New
Oct 1
First Quarter
Oct 8
Full
Oct 15
Last Quarter

Today's Extremes

State Highs State Lows

Community

WunderPhotos

Upload Photos

1,755,382 photos uploaded!

WunderBlogs® & News

Nearby

Air Quality

  Air Quality AQ Index Pollutant
Yesterday Moderate
PM2.5
Yesterday Good
OZONE
Current Good
OZONE
Current Good
PM2.5
Sunday Moderate
OZONE
Monday Moderate
OZONE
Tuesday Moderate
OZONE
Wednesday Moderate
OZONE
Thursday Moderate
OZONE
Friday Good
OZONE

Snow Depth

Station Depth Elevation
CSS Lab 0 in 6900 ft
Leavitt Meadows 1 in 7200 ft
Hagan's Meadow 0 in 8000 ft
Tahoe City Cross 0 in 6750 ft
Summit Meadow 1 in 9122 ft

Earthquake Activity

City Distance Mag. Time & Date
Borrego Springs, California 49 miles 2.6 7:34 AM PDT
2014-09-21
Aguanga, California 78 miles 2.5 1:38 AM PDT
2014-09-19
Minimum magnitude displayed is 2.5.

Coastal Water Temperatures

Place Temperature
No Stations Reporting

Nearby Weather Stations